GW6740 Weather Reports


Display with metric or nautical units.
time (UTC)temp
F
wind
direction
speed
MPH
gust
MPH
rain 1hr
in
rain 24hr
in
rain mn
in
humidity
%
barometer
mb
20260503024533 79 226 0.0 0.0 0.00 0.00 0.00 72 1015.3
20260503024030 79 229 0.0 0.0 0.00 0.00 0.00 72 1015.3
20260503023527 79 268 0.0 0.0 0.00 0.00 0.00 72 1015.5
20260503023025 79 212 0.0 0.0 0.00 0.00 0.00 71 1015.5
20260503022520 79 226 0.0 0.0 0.00 0.00 0.00 70 1015.4
20260503022015 79 235 0.0 0.0 0.00 0.00 0.00 70 1015.5
20260503021512 80 255 0.0 0.0 0.00 0.00 0.00 69 1015.3
20260503021009 80 249 1.0 2.0 0.00 0.00 0.00 69 1015.0
20260503020506 80 196 0.0 0.0 0.00 0.00 0.00 68 1015.2
20260503020003 80 228 0.0 0.0 0.00 0.00 0.00 67 1015.2
20260503015459 80 292 0.0 1.0 0.00 0.00 0.00 66 1015.3
20260503014956 80 251 0.0 1.0 0.00 0.00 0.00 66 1015.1
20260503014453 81 64 1.0 1.0 0.00 0.00 0.00 65 1015.0
20260503013951 81 189 0.0 0.0 0.00 0.00 0.00 64 1015.2
20260503013448 81 220 2.0 3.0 0.00 0.00 0.00 64 1015.2
20260503012945 81 200 0.0 0.0 0.00 0.00 0.00 63 1015.1
20260503012443 81 216 0.0 0.0 0.00 0.00 0.00 62 1014.9
20260503011938 81 210 1.0 1.0 0.00 0.00 0.00 62 1015.0
20260503011435 81 145 0.0 1.0 0.00 0.00 0.00 61 1014.8
20260503010933 81 312 1.0 2.0 0.00 0.00 0.00 61 1014.8
20260503010429 81 316 2.0 3.0 0.00 0.00 0.00 60 1014.4
20260503005926 82 305 0.0 1.0 0.00 0.00 0.00 59 1014.5
20260503005424 82 284 0.0 1.0 0.00 0.00 0.00 58 1014.4
20260503004920 82 189 1.0 2.0 0.00 0.00 0.00 57 1014.3
20260503004417 82 266 1.0 1.0 0.00 0.00 0.00 57 1014.4
20260503003915 82 224 1.0 1.0 0.00 0.00 0.00 57 1014.3
20260503003412 83 278 1.0 2.0 0.00 0.00 0.00 56 1014.2
20260503002909 83 188 0.0 0.0 0.00 0.00 0.00 56 1014.1
20260503002406 83 253 1.0 1.0 0.00 0.00 0.00 54 1014.1
20260503001902 83 213 0.0 0.0 0.00 0.00 0.00 53 1013.8
20260503001358 84 223 1.0 2.0 0.00 0.00 0.00 52 1014.0
20260503000856 84 194 1.0 2.0 0.00 0.00 0.00 50 1013.7
20260503000353 84 237 1.0 1.0 0.00 0.00 0.00 47 1013.9
20260502235850 84 290 0.0 0.0 0.00 0.00 0.00 47 1013.7
20260502235347 84 270 0.0 1.0 0.00 0.00 0.00 46 1013.5
20260502234844 85 240 0.0 0.0 0.00 0.00 0.00 46 1013.5
20260502234341 85 216 0.0 0.0 0.00 0.00 0.00 48 1013.4
20260502233838 85 252 2.0 2.0 0.00 0.00 0.00 50 1013.2
20260502233334 86 187 0.0 0.0 0.00 0.00 0.00 50 1013.0
20260502232831 86 52 0.0 1.0 0.00 0.00 0.00 49 1013.3
20260502232327 86 227 1.0 1.0 0.00 0.00 0.00 48 1013.1
20260502231824 87 227 0.0 0.0 0.00 0.00 0.00 47 1012.8
20260502231322 87 215 0.0 0.0 0.00 0.00 0.00 46 1012.6
20260502230820 87 205 1.0 1.0 0.00 0.00 0.00 45 1012.6
20260502230318 88 193 2.0 3.0 0.00 0.00 0.00 44 1012.6
20260502225814 88 221 0.0 0.0 0.00 0.00 0.00 44 1012.5
20260502225311 88 11 1.0 1.0 0.00 0.00 0.00 43 1012.4
20260502224807 89 274 1.0 2.0 0.00 0.00 0.00 42 1012.2
20260502224304 89 232 1.0 1.0 0.00 0.00 0.00 41 1012.2
20260502223802 89 210 1.0 2.0 0.00 0.00 0.00 40 1012.3
20260502223300 89 316 1.0 2.0 0.00 0.00 0.00 41 1012.3
20260502222757 89 53 0.0 1.0 0.00 0.00 0.00 41 1012.3
20260502222254 90 208 0.0 1.0 0.00 0.00 0.00 42 1012.3
20260502221750 90 222 0.0 1.0 0.00 0.00 0.00 41 1012.4
20260502221246 90 246 1.0 1.0 0.00 0.00 0.00 42 1012.3
20260502220743 90 228 1.0 1.0 0.00 0.00 0.00 42 1012.3
20260502220239 90 183 0.0 0.0 0.00 0.00 0.00 42 1012.0
20260502215735 91 194 2.0 3.0 0.00 0.00 0.00 41 1012.3
20260502215233 91 200 1.0 1.0 0.00 0.00 0.00 41 1012.3
20260502214730 91 33 1.0 2.0 0.00 0.00 0.00 41 1012.2
20260502214227 91 239 2.0 3.0 0.00 0.00 0.00 40 1012.2
20260502213724 91 204 0.0 0.0 0.00 0.00 0.00 41 1012.0
20260502213222 91 284 1.0 1.0 0.00 0.00 0.00 41 1011.7
20260502212720 91 213 2.0 2.0 0.00 0.00 0.00 40 1011.9
20260502212218 91 236 0.0 1.0 0.00 0.00 0.00 41 1011.8
20260502211714 91 206 1.0 1.0 0.00 0.00 0.00 39 1011.9
20260502211211 91 41 1.0 2.0 0.00 0.00 0.00 39 1011.9
20260502210708 92 359 1.0 1.0 0.00 0.00 0.00 37 1011.8
20260502210205 92 86 1.0 2.0 0.00 0.00 0.00 38 1011.7
20260502205702 92 166 1.0 2.0 0.00 0.00 0.00 38 1011.7
20260502205158 92 303 1.0 2.0 0.00 0.00 0.00 39 1011.5
20260502204655 92 33 1.0 1.0 0.00 0.00 0.00 40 1011.6
20260502204153 92 290 1.0 1.0 0.00 0.00 0.00 40 1011.8
20260502203650 93 203 0.0 0.0 0.00 0.00 0.00 38 1011.8
20260502203148 93 214 1.0 1.0 0.00 0.00 0.00 38 1011.7
20260502202642 93 160 1.0 2.0 0.00 0.00 0.00 39 1011.8
20260502202141 93 209 0.0 1.0 0.00 0.00 0.00 39 1011.8
20260502201637 93 95 2.0 4.0 0.00 0.00 0.00 37 1011.9
20260502201134 93 205 3.0 6.0 0.00 0.00 0.00 39 1012.1
20260502200629 93 133 2.0 2.0 0.00 0.00 0.00 39 1012.0
20260502200127 93 272 1.0 2.0 0.00 0.00 0.00 41 1012.3
20260502195626 93 196 0.0 1.0 0.00 0.00 0.00 41 1012.3
20260502195120 92 215 1.0 2.0 0.00 0.00 0.00 39 1012.3
20260502194618 92 215 1.0 2.0 0.00 0.00 0.00 39 1012.6
20260502194114 92 194 0.0 0.0 0.00 0.00 0.00 43 1012.4
20260502193611 92 186 2.0 2.0 0.00 0.00 0.00 41 1012.3
20260502193108 92 176 2.0 3.0 0.00 0.00 0.00 42 1012.6
20260502192603 93 106 1.0 2.0 0.00 0.00 0.00 43 1012.6
20260502192101 92 235 3.0 4.0 0.00 0.00 0.00 42 1012.4
20260502191558 93 179 2.0 3.0 0.00 0.00 0.00 41 1012.8
20260502191055 92 236 0.0 1.0 0.00 0.00 0.00 45 1012.6
20260502190553 93 220 2.0 3.0 0.00 0.00 0.00 40 1012.6
20260502190050 93 132 1.0 1.0 0.00 0.00 0.00 42 1012.7
20260502185544 92 193 2.0 2.0 0.00 0.00 0.00 44 1012.9
20260502185042 93 7 1.0 2.0 0.00 0.00 0.00 45 1012.9
20260502184538 93 281 2.0 3.0 0.00 0.00 0.00 45 1012.8
20260502184034 92 248 1.0 1.0 0.00 0.00 0.00 45 1012.8
20260502183530 93 78 0.0 1.0 0.00 0.00 0.00 47 1012.7
20260502183026 93 215 1.0 1.0 0.00 0.00 0.00 46 1013.1
20260502182521 93 275 0.0 0.0 0.00 0.00 0.00 47 1012.9
20260502182018 92 353 1.0 1.0 0.00 0.00 0.00 47 1013.1
20260502181516 91 239 1.0 1.0 0.00 0.00 0.00 48 1013.0
20260502181014 92 228 0.0 0.0 0.00 0.00 0.00 48 1013.2
20260502180511 93 225 0.0 1.0 0.00 0.00 0.00 47 1013.1
20260502170436 92 197 0.0 1.0 0.00 0.00 0.00 51 1013.5
20260502163919 92 235 4.0 6.0 0.00 0.00 0.00 51 1013.4
20260502163415 92 210 0.0 1.0 0.00 0.00 0.00 52 1013.5
20260502162913 92 192 1.0 1.0 0.00 0.00 0.00 52 1013.7
20260502162410 91 160 1.0 1.0 0.00 0.00 0.00 52 1013.6
20260502161907 90 207 2.0 3.0 0.00 0.00 0.00 54 1013.7
20260502161403 90 165 2.0 3.0 0.00 0.00 0.00 56 1013.8
20260502160901 89 189 2.0 2.0 0.00 0.00 0.00 56 1013.9
20260502160359 88 236 1.0 1.0 0.00 0.00 0.00 59 1013.8
20260502152340 89 154 0.0 1.0 0.00 0.00 0.00 64 1014.0
20260502151837 89 306 1.0 1.0 0.00 0.00 0.00 62 1013.9
20260502151334 90 262 1.0 1.0 0.00 0.00 0.00 60 1014.0
20260502150831 89 169 1.0 1.0 0.00 0.00 0.00 63 1013.9
20260502150327 88 180 2.0 3.0 0.00 0.00 0.00 65 1014.0
20260502130716 82 242 2.0 2.0 0.00 0.00 0.00 75 1013.5
20260502130214 82 194 1.0 1.0 0.00 0.00 0.00 74 1013.7
20260502123700 80 352 1.0 1.0 0.00 0.00 0.00 79 1013.7
20260502123156 79 198 0.0 0.0 0.00 0.00 0.00 82 1013.7
20260502122652 78 188 0.0 0.0 0.00 0.00 0.00 83 1013.7
20260502122149 78 197 0.0 0.0 0.00 0.00 0.00 83 1013.6
20260502121647 77 226 1.0 1.0 0.00 0.00 0.00 85 1013.7
20260502121144 77 193 0.0 0.0 0.00 0.00 0.00 87 1013.5
20260502120641 76 224 0.0 0.0 0.00 0.00 0.00 88 1013.8
20260502120138 76 221 0.0 1.0 0.00 0.00 0.00 88 1013.5
20260502115635 76 218 0.0 0.0 0.00 0.00 0.00 90 1013.5
20260502115131 75 218 0.0 0.0 0.00 0.00 0.00 90 1013.4
20260502114627 75 218 0.0 0.0 0.00 0.00 0.00 91 1013.7
20260502114125 75 235 0.0 0.0 0.00 0.00 0.00 91 1013.6
20260502113622 74 235 0.0 0.0 0.00 0.00 0.00 91 1013.5
20260502113121 74 235 0.0 0.0 0.00 0.00 0.00 91 1013.7
20260502112618 74 235 0.0 0.0 0.00 0.00 0.00 91 1013.6
20260502112115 74 235 0.0 0.0 0.00 0.00 0.00 91 1013.5
20260502111613 74 235 0.0 0.0 0.00 0.00 0.00 91 1013.5
20260502111110 74 235 0.0 0.0 0.00 0.00 0.00 91 1013.6
20260502110608 74 235 0.0 0.0 0.00 0.00 0.00 91 1013.5
20260502110105 74 235 0.0 0.0 0.00 0.00 0.00 91 1013.4
20260502105602 74 235 0.0 0.0 0.00 0.00 0.00 92 1013.5
20260502105059 73 235 0.0 0.0 0.00 0.00 0.00 92 1013.5
20260502104556 73 235 0.0 0.0 0.00 0.00 0.00 92 1013.2
20260502104054 73 234 0.0 0.0 0.00 0.00 0.00 92 1013.4
20260502103551 73 235 0.0 0.0 0.00 0.00 0.00 93 1013.3
20260502103050 73 235 0.0 0.0 0.00 0.00 0.00 93 1013.4
20260502102545 73 235 0.0 0.0 0.00 0.00 0.00 93 1013.4
20260502102043 73 240 0.0 0.0 0.00 0.00 0.00 93 1013.5
20260502101540 73 242 0.0 0.0 0.00 0.00 0.00 93 1013.5
20260502101039 73 242 0.0 0.0 0.00 0.00 0.00 93 1013.5
20260502100537 73 242 0.0 0.0 0.00 0.00 0.00 93 1013.3
20260502091512 73 303 0.0 0.0 0.00 0.00 0.00 93 1013.3
20260502091009 73 307 0.0 0.0 0.00 0.00 0.00 92 1013.3
20260502090506 73 283 0.0 0.0 0.00 0.00 0.00 92 1013.3
20260502071400 73 214 0.0 0.0 0.00 0.00 0.00 89 1013.2
20260502070858 73 214 0.0 0.0 0.00 0.00 0.00 89 1013.1
20260502070356 73 214 0.0 0.0 0.00 0.00 0.00 89 1013.2
20260502065855 73 214 0.0 0.0 0.00 0.00 0.00 89 1013.1
20260502065352 73 214 0.0 0.0 0.00 0.00 0.00 89 1013.2
20260502064850 73 214 0.0 0.0 0.00 0.00 0.00 89 1013.3
20260502064348 73 214 0.0 0.0 0.00 0.00 0.00 89 1013.2
20260502063844 73 214 0.0 0.0 0.00 0.00 0.00 89 1013.4
20260502063342 73 214 0.0 0.0 0.00 0.00 0.00 89 1013.6
20260502062839 73 214 0.0 0.0 0.00 0.00 0.00 89 1013.5
20260502062337 73 214 0.0 0.0 0.00 0.00 0.00 89 1013.4
20260502061836 73 214 0.0 0.0 0.00 0.00 0.00 88 1013.5
20260502061333 73 214 0.0 0.0 0.00 0.00 0.00 88 1013.5
20260502060828 73 214 0.0 0.0 0.00 0.00 0.00 88 1013.4
20260502060323 73 214 0.0 0.0 0.00 0.00 0.00 87 1013.3
20260502055822 73 214 0.0 0.0 0.00 0.00 0.00 87 1013.5
20260502055319 74 214 0.0 0.0 0.00 0.00 0.00 87 1013.4
20260502054819 74 214 0.0 0.0 0.00 0.00 0.00 87 1013.4
20260502054316 73 214 0.0 0.0 0.00 0.00 0.00 88 1013.4
20260502053814 73 214 0.0 0.0 0.00 0.00 0.00 88 1013.5
20260502053310 74 214 0.0 0.0 0.00 0.00 0.00 88 1013.4
20260502052808 74 214 0.0 0.0 0.00 0.00 0.00 88 1013.8
20260502052306 74 214 0.0 0.0 0.00 0.00 0.00 88 1013.6
20260502051804 74 214 0.0 0.0 0.00 0.00 0.00 88 1013.6
20260502051302 73 214 0.0 0.0 0.00 0.00 0.00 88 1013.6
20260502050758 73 214 0.0 0.0 0.00 0.00 0.00 88 1013.7
20260502050254 73 216 0.0 0.0 0.00 0.00 0.00 88 1013.8
20260502045752 73 217 0.0 0.0 0.00 0.00 0.00 88 1013.9
20260502045248 73 217 0.0 0.0 0.00 0.00 0.00 88 1013.9
20260502044745 73 217 0.0 0.0 0.00 0.00 0.00 89 1014.1
20260502044241 73 218 0.0 0.0 0.00 0.00 0.00 89 1014.2
20260502043739 73 218 0.0 0.0 0.00 0.00 0.00 89 1014.0
20260502043236 73 218 0.0 0.0 0.00 0.00 0.00 89 1014.1
20260502042735 73 218 0.0 0.0 0.00 0.00 0.00 89 1014.2
20260502042233 73 218 0.0 0.0 0.00 0.00 0.00 88 1014.0
20260502041731 73 218 0.0 0.0 0.00 0.00 0.00 88 1014.4
20260502041228 73 218 0.0 0.0 0.00 0.00 0.00 88 1014.2
20260502040725 73 218 0.0 0.0 0.00 0.00 0.00 89 1014.2
20260502040221 73 219 0.0 0.0 0.00 0.00 0.00 88 1014.3
20260502035717 73 219 0.0 0.0 0.00 0.00 0.00 88 1014.3
20260502035215 73 219 0.0 0.0 0.00 0.00 0.00 88 1014.3
20260502034712 73 219 0.0 0.0 0.00 0.00 0.00 88 1014.3
20260502034210 73 219 0.0 0.0 0.00 0.00 0.00 87 1014.4
20260502033708 74 219 0.0 0.0 0.00 0.00 0.00 87 1014.2
20260502033206 74 219 0.0 0.0 0.00 0.00 0.00 87 1014.2
20260502032702 74 218 0.0 0.0 0.00 0.00 0.00 86 1014.3
20260502032157 74 218 0.0 0.0 0.00 0.00 0.00 86 1014.2
20260502031656 75 218 0.0 0.0 0.00 0.00 0.00 85 1014.2
20260502031153 75 218 0.0 0.0 0.00 0.00 0.00 85 1014.3
20260502030652 75 218 0.0 0.0 0.00 0.00 0.00 85 1014.2
20260502030150 75 219 0.0 0.0 0.00 0.00 0.00 84 1014.4
20260502025646 75 219 0.0 0.0 0.00 0.00 0.00 84 1014.2
20260502025144 75 219 0.0 0.0 0.00 0.00 0.00 83 1014.2